User: anonymous   Login
Location: Unspecified
(0.0000°N, 0.0000°E)
Time: 07:24:36
(UTC+00:00)
Language:

NNS O-31 - Orbit

View from above orbital plane
View from above orbital plane
View from above satellite
View from above satellite

Ground track
Ground track

The orbit data is extracted from the following two-line orbital elements,

1 19420U 88074B   19082.89253726 +.00000057 +00000-0 +81857-4 0  9990
2 19420 089.9971 018.2536 0096241 045.0216 023.7383 13.42221080497049
Epoch (UTC): 23 March 2019 21:25:15
Eccentricity: 0.0096241
inclination: 89.9971°
perigee height: 1029 km
apogee height: 1173 km
right ascension of ascending node: 18.2536°
argument of perigee: 45.0216°
revolutions per day: 13.42221080
mean anomaly at epoch: 23.7383°
orbit number at epoch: 49704

The dashed part of the orbit path shows where the satellite is in the earth's shadow,  

DLR